Flag for Germany Weather past 2 weeks in Rastatt, Baden-Württemberg, Germany

36 °F

Partly sunny.

Feels Like: 27 °F
Forecast: 38 / 51 °F
Wind: 13 mph from Southwest

Location: Karlsruhe - Baden Wurttemberg

Current Time: Nov 28, 2015 at 9:49:50 AM

Latest Report: Nov 28, 2015 at 9:20 AM

Visibility: 4 mi

Pressure: 29.98 "Hg

Humidity: 93%

Dew point: 34 °F

Location of RastattLocation

Historic Weather in Rastatt — Graph


Rastatt temperature yesterday

Maximum temperature yesterday: 34 °F (at 1:20 PM)
Minimum temperature yesterday: 30 °F (at 5:50 AM)
Average temperature yesterday: 32 °F

Past Weeks' High & Low Weather Summary

High63 °F (Nov 18, 5:20 AM)100% (Nov 20, 8:20 AM)30.48 "Hg (Nov 20, 8:20 AM)
Low23 °F (Nov 24, 6:20 AM)44% (Nov 14, 1:50 PM)29.42 "Hg (Nov 21, 11:50 AM)
Average46 °F78%30.02 "Hg
* Reported Nov 13 8:20 AM — Nov 28 8:50 AM, Rastatt, Weather by CustomWeather, © 2015

Note: Actual official high and low records may vary slightly from our data, if they occured in-between our weather recording intervals... More about our weather records


Rastatt weather history for previous 24 hours

Time TempWeatherWind HumidityBarometerVisibility
8:50 AM
Sat, Nov 28
36 °FDrizzle. Broken clouds.15 mph93%29.95 "Hg4 mi
8:20 AM34 °FSnow. Partly sunny.15 mph93%29.95 "Hg4 mi
7:50 AM34 °FSnow. Partly cloudy.15 mph93%29.92 "Hg4 mi
7:20 AM34 °FRain. Passing clouds.16 mph100%29.92 "Hg3 mi
6:50 AM34 °FLight rain. Passing clouds.16 mph93%29.89 "Hg4 mi
6:20 AM36 °FLight rain. Passing clouds.17 mph87%29.89 "Hg5 mi
5:50 AM36 °FLight snow. Partly cloudy.18 mph87%29.89 "Hg6 mi
4:50 AM34 °FPassing clouds.15 mph93%29.89 "HgN/A
12:20 AM32 °FLow clouds.12 mph100%29.98 "Hg4 mi
11:50 PM
Fri, Nov 27
34 °FLow clouds.10 mph93%29.98 "Hg4 mi
11:20 PM34 °FLow clouds.12 mph93%29.98 "Hg4 mi
10:50 PM32 °FIce fog.9 mph100%29.98 "Hg3 mi
9:50 PM32 °FIce fog.7 mph100%30.01 "Hg2 mi
9:20 PM32 °FIce fog.5 mph100%30.01 "Hg1 mi
8:50 PM32 °FIce fog.3 mph100%30.04 "Hg2 mi
8:20 PM32 °FIce fog.5 mph100%30.04 "Hg2 mi
7:50 PM32 °FIce fog.5 mph100%30.04 "Hg1 mi
7:20 PM32 °FLow clouds.5 mph100%30.04 "Hg1 mi
6:50 PM32 °FIce fog.3 mph100%30.04 "Hg1 mi
6:20 PM32 °FLow clouds.2 mph93%30.04 "Hg1 mi
5:50 PM32 °FIce fog.1 mph93%30.04 "Hg1 mi
5:20 PM32 °FIce fog.5 mph100%30.04 "Hg1 mi
4:50 PM32 °FIce fog.3 mph100%30.04 "Hg1 mi
4:20 PM32 °FFog.1 mph100%30.07 "Hg1 mi
3:50 PM32 °FFog.No wind100%30.07 "Hg1 mi
3:20 PM32 °FFog.2 mph100%30.07 "Hg1 mi
2:50 PM34 °FFog.2 mph93%30.07 "Hg1 mi
2:20 PM32 °FFog.1 mph100%30.07 "Hg1 mi
1:50 PM32 °FFog.No wind100%30.09 "Hg1 mi
1:20 PM34 °FFog.2 mph93%30.09 "Hg1 mi
12:50 PM32 °FFog.1 mph100%30.09 "Hg1 mi
12:20 PM32 °FIce fog.No wind100%30.12 "Hg1 mi
11:50 AM32 °FIce fog.1 mph100%30.12 "Hg0 mi
11:20 AM32 °FIce fog.1 mph100%30.12 "Hg0 mi
10:50 AM32 °FIce fog.2 mph100%30.12 "Hg0 mi
10:20 AM32 °FIce fog.3 mph93%30.15 "Hg0 mi
9:50 AM30 °FIce fog.No wind100%30.12 "Hg0 mi
9:20 AM30 °FIce fog.2 mph100%30.15 "Hg0 mi
Weather by CustomWeather, © 2015

See weather overviewHow to use our weather pages